TimeEDT,TemperatureF,Dew PointF,Humidity,Sea Level PressureIn,VisibilityMPH,Wind Direction,Wind SpeedMPH,Gust SpeedMPH,PrecipitationIn,Events,Conditions,WindDirDegrees,DateUTC
12:50 AM,73.4,71.6,94,30.12,10.0,Calm,Calm,-,N/A,,Mostly Cloudy,0,2013-06-22 04:50:00
12:53 AM,73.9,72.0,93,30.12,10.0,Calm,Calm,-,N/A,,Mostly Cloudy,0,2013-06-22 04:53:00
1:03 AM,73.4,71.6,94,30.11,10.0,Calm,Calm,-,N/A,,Mostly Cloudy,0,2013-06-22 05:03:00
1:30 AM,73.4,71.6,94,30.10,10.0,Calm,Calm,-,N/A,,Scattered Clouds,0,2013-06-22 05:30:00
1:53 AM,73.9,73.0,97,30.09,10.0,Calm,Calm,-,N/A,,Clear,0,2013-06-22 05:53:00
2:53 AM,73.0,72.0,96,30.08,9.0,Calm,Calm,-,N/A,,Clear,0,2013-06-22 06:53:00
3:53 AM,72.0,70.0,93,30.07,8.0,Calm,Calm,-,N/A,,Clear,0,2013-06-22 07:53:00
4:21 AM,71.6,69.8,94,30.07,1.8,Calm,Calm,-,N/A,,Clear,0,2013-06-22 08:21:00
4:31 AM,71.6,69.8,94,30.07,4.0,Calm,Calm,-,N/A,,Clear,0,2013-06-22 08:31:00
4:53 AM,71.1,70.0,96,30.07,7.0,Calm,Calm,-,N/A,,Clear,0,2013-06-22 08:53:00
5:15 AM,69.8,68.0,94,30.07,2.5,Calm,Calm,-,N/A,,Clear,0,2013-06-22 09:15:00
5:23 AM,71.6,69.8,94,30.07,9.0,Calm,Calm,-,N/A,,Clear,0,2013-06-22 09:23:00
5:43 AM,69.8,69.8,100,30.07,1.8,Calm,Calm,-,N/A,,Clear,0,2013-06-22 09:43:00
5:53 AM,70.0,68.0,93,30.07,3.0,Calm,Calm,-,N/A,,Clear,0,2013-06-22 09:53:00
6:53 AM,71.1,69.1,93,30.09,7.0,Calm,Calm,-,N/A,,Clear,0,2013-06-22 10:53:00
7:53 AM,78.1,75.0,90,30.10,10.0,Calm,Calm,-,N/A,,Clear,0,2013-06-22 11:53:00
8:53 AM,82.9,73.0,72,30.12,10.0,East,6.9,-,N/A,,Clear,100,2013-06-22 12:53:00
9:53 AM,84.0,73.9,72,30.12,10.0,ENE,5.8,-,N/A,,Clear,70,2013-06-22 13:53:00
10:53 AM,86.0,73.9,67,30.13,10.0,NNE,8.1,-,N/A,,Scattered Clouds,30,2013-06-22 14:53:00
11:53 AM,87.1,73.9,65,30.14,10.0,ENE,11.5,-,N/A,,Clear,70,2013-06-22 15:53:00
12:53 PM,87.1,73.0,63,30.13,10.0,ENE,8.1,-,N/A,,Clear,60,2013-06-22 16:53:00
1:53 PM,86.0,75.0,70,30.13,10.0,East,10.4,-,N/A,,Scattered Clouds,80,2013-06-22 17:53:00
2:53 PM,87.1,72.0,61,30.11,10.0,East,11.5,-,N/A,,Scattered Clouds,90,2013-06-22 18:53:00
3:53 PM,84.9,73.0,67,30.10,10.0,East,8.1,-,N/A,,Clear,80,2013-06-22 19:53:00
4:53 PM,87.1,73.0,63,30.09,10.0,East,10.4,-,N/A,,Partly Cloudy,100,2013-06-22 20:53:00
5:53 PM,84.0,73.0,69,30.08,10.0,East,8.1,-,N/A,,Clear,80,2013-06-22 21:53:00
6:53 PM,84.0,72.0,67,30.07,10.0,East,8.1,-,N/A,,Clear,100,2013-06-22 22:53:00
7:53 PM,82.0,73.0,74,30.09,10.0,East,6.9,-,N/A,,Clear,90,2013-06-22 23:53:00
8:53 PM,80.1,73.0,79,30.09,10.0,East,4.6,-,N/A,,Clear,90,2013-06-23 00:53:00
9:53 PM,80.1,73.9,81,30.09,10.0,East,5.8,-,N/A,,Clear,100,2013-06-23 01:53:00
10:53 PM,80.1,73.9,81,30.11,10.0,East,6.9,-,N/A,,Clear,100,2013-06-23 02:53:00
11:53 PM,80.1,73.9,81,30.13,10.0,East,4.6,-,N/A,,Clear,90,2013-06-23 03:53:00